Find Starlink 2097

NORAD ID: 47377 Int'l Des: 2021-005 Owner: SPXS Country: US Constellation: starlink operational
LEOCIRCULARSTARLINK_TYPE

实时位置

正在加载3D地球...

关于 Starlink 2097

正在加载描述...

即将过境

Passes for default location (London). Set your location on the main map for personalized predictions.

高度历史

Loading altitude history...

两行轨道根数

1 47377U 21005AE 26132.95363247 .00003217 00000-0 11537-3 0 9992
2 47377 53.1599 127.4484 0001259 76.5024 283.6118 15.31707699292812
Epoch: May 12, 2026 • Age: 9 hours

当前状态

高度 475.2 km
速度 7.63 km/s
星下点 -14.93°S, 27.57°W
发射日期 Jan 20, 2021
运行时间 5.3 years
类型 internet

技术详情

分类 Payload
质量 260.00 kg
干质量 248.00 kg
总质量 260.00 kg
长度 0.20 m
直径 2.80 m
跨度 9.00 m
形状 Box + pan
制造商 SPXS
平台类型 Starlink
阶段状态 In Orbit
所有者/国家 SPXS/US

Most Searched